Wind_Speed
9 9 10 10 9 9 9 10 11 11 10 10 10 10 10 10 11 11 11 12 12 12 11 12 11 10 10 10 10 11 11 10 10 10 10 10 10 10 11 12 13 13 13
10 10 9 9 10 10 10 10 11 11 11 11 11 10 10 11 12 12 12 12 12 12 12 11 12 10 10 10 11 12 10 10 10 10 10 10 10 10 11 12 13 14 14
11 11 11 10 10 11 11 11 11 12 11 11 12 11 11 11 12 13 13 13 13 12 13 13 12 12 12 12 12 12 11 10 10 10 10 11 11 12 13 14 14 15 15
12 12 12 12 11 12 12 12 12 12 13 13 13 13 13 13 13 13 14 14 13 13 14 14 14 13 13 13 13 13 12 12 11 11 11 12 12 13 14 14 15 15 15
14 14 13 12 12 13 13 13 14 14 14 15 15 15 15 15 15 15 15 15 15 15 15 15 15 14 14 14 14 14 14 13 12 12 13 13 14 15 14 14 15 16 15
15 15 15 14 14 14 14 14 15 16 16 16 16 16 16 16 16 17 18 17 16 16 17 18 18 17 16 16 15 15 15 15 14 14 14 15 15 16 16 16 17 17 17
16 16 16 15 15 14 14 15 16 16 17 17 17 18 18 18 18 19 19 19 19 19 19 20 20 20 18 17 17 16 16 15 15 16 16 17 17 18 18 18 18 19 19
17 17 16 15 15 15 15 16 17 18 19 19 19 20 20 20 20 21 21 20 20 21 21 21 21 22 21 19 18 17 18 17 17 17 18 19 19 20 19 20 20 21 21
18 18 17 17 17 17 17 18 18 19 20 21 22 23 23 22 22 22 22 22 22 22 22 22 23 23 22 21 21 20 21 20 21 20 20 21 21 22 22 22 22 23 23
19 19 19 19 20 20 21 21 21 21 22 22 23 25 25 24 24 23 23 23 23 24 24 24 24 25 24 24 24 24 23 23 23 23 23 23 23 23 24 24 25 25 24
24 21 20 22 22 22 23 23 23 23 24 24 25 26 26 25 24 24 24 24 24 25 25 25 25 25 25 26 26 25 25 25 25 25 25 25 26 26 26 26 26 26 26
24 23 23 25 24 25 25 25 25 26 27 27 26 26 27 26 26 25 25 26 26 26 26 26 27 27 27 27 27 27 27 27 27 26 27 27 27 27 27 28 28 28 28
24 26 27 26 27 28 27 27 27 28 28 28 28 28 28 28 28 27 28 28 27 27 27 28 27 28 28 28 28 28 28 28 28 28 28 28 27 27 28 28 28 28 28
27 27 28 28 28 28 27 28 29 29 29 28 29 28 28 29 28 29 29 29 29 29 28 28 29 28 28 28 28 28 28 29 29 28 28 27 28 28 28 28 28 28 28
28 29 29 29 29 28 28 29 30 30 30 29 30 29 29 29 29 29 30 30 31 31 30 30 30 29 29 29 30 30 29 30 29 29 29 29 29 30 30 30 30 29 29
29 29 30 30 30 29 29 30 30 30 30 30 30 30 30 30 30 30 30 31 31 30 30 30 30 30 30 30 30 30 30 30 30 30 30 31 31 31 31 31 31 31 31
30 30 30 31 30 31 30 31 31 31 31 31 31 31 31 31 31 31 31 31 30 30 30 30 30 30 31 30 30 30 30 30 30 30 31 32 31 32 31 32 31 32 32
30 31 31 31 31 31 32 32 32 31 33 33 32 32 32 33 32 32 31 31 31 31 30 30 31 31 30 30 30 30 30 30 30 31 31 31 31 31 31 31 32 32 33
31 32 32 32 32 32 32 32 33 33 33 33 33 33 33 33 33 32 32 32 32 32 31 30 30 30 30 30 30 31 31 30 30 31 31 31 31 31 31 31 32 32 33
33 33 33 33 33 33 34 34 34 33 33 34 34 34 34 34 34 33 32 32 32 32 31 31 31 31 31 31 31 31 31 31 31 31 31 31 31 31 31 32 32 31 31
35 35 34 34 34 34 35 35 35 34 34 34 35 36 35 35 34 34 34 33 33 33 33 32 32 32 32 32 32 32 32 32 32 31 31 32 32 31 31 32 32 31 31
36 35 35 34 35 35 35 35 35 35 36 36 36 35 35 35 35 35 35 35 34 34 34 34 33 33 32 32 32 32 32 32 33 33 33 33 32 32 32 32 32 32 31
36 36 35 36 36 35 35 36 36 36 36 36 35 36 36 35 35 35 35 35 35 35 35 34 33 33 33 33 33 33 33 33 34 34 33 33 32 32 33 33 33 32 32
37 36 36 36 35 35 36 36 37 36 36 35 36 36 36 35 36 36 37 36 36 35 35 35 34 34 34 34 34 34 34 34 34 34 34 33 33 33 33 33 33 33 32
37 36 36 36 37 37 36 36 35 35 36 36 36 36 36 36 36 36 36 36 35 35 35 35 35 34 34 33 34 34 34 33 33 33 33 33 33 34 33 33 33 32 32
36 36 36 36 36 37 37 36 36 36 36 36 36 36 36 35 35 35 35 35 35 35 35 36 35 34 34 33 33 33 33 33 33 33 33 33 33 33 33 33 33 33 33
Wind_Direction
344 346 347 350 350 354 355 352 353 352 350 350 349 348 345 348 350 350 346 347 352 350 349 350 349 348 348 346 347 340 335 329 322 319 317 303 294 284 282 280 277 273 271
339 339 339 341 343 344 345 343 344 345 342 340 339 336 336 338 341 344 344 344 345 346 344 344 343 344 344 340 336 335 333 330 326 321 319 317 310 298 293 289 288 286 280
331 330 329 331 333 335 337 338 337 337 336 332 331 329 326 329 330 332 333 334 341 344 343 341 341 345 342 335 333 332 331 329 324 319 319 316 311 307 299 294 292 289 288
323 323 324 325 323 325 329 331 330 329 328 327 325 323 321 321 323 325 327 331 334 336 335 332 332 333 334 331 329 329 326 323 321 319 315 312 315 312 307 301 296 292 291
313 315 318 319 319 319 320 323 324 323 323 321 321 318 320 318 318 318 320 324 327 329 328 326 326 324 325 325 323 321 321 320 315 312 312 313 310 310 309 305 300 297 293
306 309 312 314 316 316 316 316 316 318 319 320 320 319 317 314 312 313 314 317 320 320 320 320 320 320 318 319 319 317 316 315 312 309 307 307 306 305 305 303 300 297 295
300 303 306 309 312 312 314 314 315 317 315 313 314 314 313 312 308 307 308 311 313 314 314 313 313 313 311 311 312 312 311 311 311 308 306 305 304 304 304 301 298 296 293
294 299 301 300 305 306 308 309 311 311 311 310 310 309 308 308 306 303 303 305 306 308 308 308 309 309 306 307 309 308 308 306 305 306 306 305 305 304 303 301 298 295 292
289 293 296 299 303 305 307 307 307 307 308 307 307 307 306 306 306 303 301 302 303 304 304 305 305 307 306 305 309 304 305 305 306 304 304 304 303 303 301 300 299 297 296
284 290 295 295 298 300 302 303 305 303 304 304 304 305 304 302 302 302 301 302 303 302 303 304 305 306 306 305 304 303 301 302 303 304 303 302 301 301 300 299 298 298 297
290 288 289 294 296 297 299 302 303 302 301 302 302 302 303 300 298 299 299 299 299 300 300 300 302 304 304 303 302 301 300 299 299 300 300 300 299 299 298 297 295 295 294
286 289 290 294 295 297 298 298 299 300 299 298 300 300 300 301 299 298 298 298 299 299 299 299 298 299 301 303 301 298 297 297 298 298 298 298 297 297 296 296 294 293 291
284 289 291 291 292 294 295 295 297 298 298 296 295 296 297 299 298 297 296 296 296 297 297 296 296 296 298 300 298 296 296 296 296 296 296 297 296 296 295 294 293 291 290
285 286 289 289 290 291 292 292 293 295 295 295 295 295 295 297 296 296 296 296 296 295 295 295 295 296 297 297 295 294 294 295 296 295 297 296 296 295 294 293 292 290 289
285 286 287 287 288 289 290 290 290 292 293 293 293 293 293 294 294 294 294 294 294 296 293 293 294 294 295 295 294 293 293 295 295 295 296 297 296 295 293 293 291 289 288
285 286 286 286 287 289 289 289 289 290 291 290 291 292 292 293 293 293 294 294 294 295 295 292 293 293 294 294 293 294 294 294 295 295 297 297 297 296 294 293 291 289 288
282 284 287 287 286 287 288 289 290 289 290 290 291 292 293 293 293 293 292 292 293 295 296 293 292 293 293 292 292 294 294 295 296 296 298 299 298 298 297 295 292 290 289
282 284 285 285 285 287 287 287 287 288 289 289 290 292 292 292 292 292 291 290 292 293 294 293 291 292 291 292 293 294 295 296 296 298 300 301 300 300 300 298 295 293 292
281 283 284 284 286 287 287 286 285 286 288 289 288 290 292 293 292 292 291 289 290 292 292 292 292 291 291 292 293 293 295 295 296 298 299 300 300 300 301 299 298 296 293
280 283 285 285 286 287 287 287 286 288 290 292 292 291 293 293 292 290 289 289 289 290 291 291 292 292 292 292 292 294 294 295 296 297 298 299 299 300 300 300 299 298 296
280 282 283 285 286 289 289 288 288 288 290 292 292 292 292 291 290 289 288 288 288 289 289 290 291 291 291 291 292 293 294 294 295 296 297 298 299 299 298 298 298 297 296
279 281 282 283 285 288 289 288 288 289 290 291 291 291 290 291 290 290 289 288 288 288 288 289 290 290 291 292 292 292 293 293 295 296 296 297 298 299 298 296 297 296 296
281 282 282 283 284 286 288 288 288 289 289 290 290 290 290 289 288 288 290 289 287 287 288 289 290 290 292 293 292 292 293 293 294 294 295 296 296 297 297 296 295 294 294
280 281 282 283 283 285 288 288 288 288 289 288 289 289 289 288 287 287 288 288 287 286 287 289 289 290 291 291 291 292 293 293 294 294 294 294 294 295 296 295 293 292 292
279 280 282 282 282 284 285 287 288 288 288 288 288 288 289 287 286 287 287 287 286 286 286 288 289 289 291 291 292 292 292 292 293 293 293 293 293 293 293 293 292 291 291
279 281 281 281 282 283 284 285 286 287 288 288 289 289 290 289 288 287 286 285 287 287 288 289 290 291 291 291 291 292 292 293 293 293 293 293 293 293 293 293 294 294 293
Height
5916 5914 5913 5912 5911 5910 5909 5907 5906 5905 5903 5902 5901 5900 5898 5897 5896 5895 5893 5892 5890 5889 5888 5886 5885 5884 5883 5881 5880 5879 5877 5876 5875 5874 5874 5874 5874 5874 5874 5874 5874 5874 5874
5916 5914 5913 5912 5911 5910 5908 5907 5906 5905 5903 5902 5901 5900 5899 5898 5896 5895 5893 5892 5890 5889 5887 5886 5884 5883 5882 5881 5879 5878 5876 5874 5873 5873 5872 5872 5872 5872 5872 5871 5871 5871 5871
5915 5914 5913 5911 5910 5909 5908 5907 5905 5904 5902 5901 5900 5899 5898 5897 5896 5894 5893 5891 5890 5888 5887 5885 5884 5882 5881 5880 5878 5876 5874 5873 5872 5871 5870 5869 5870 5870 5869 5868 5868 5867 5867
5914 5913 5912 5910 5909 5908 5907 5905 5904 5903 5901 5900 5899 5898 5896 5895 5894 5893 5891 5890 5889 5888 5886 5885 5883 5881 5880 5878 5876 5875 5873 5872 5871 5870 5868 5868 5867 5867 5866 5866 5865 5864 5864
5912 5911 5910 5909 5907 5906 5905 5904 5903 5902 5900 5899 5898 5896 5895 5894 5893 5892 5890 5889 5887 5886 5884 5883 5881 5879 5878 5876 5874 5872 5871 5869 5868 5867 5866 5865 5864 5863 5863 5862 5862 5861 5860
5911 5910 5908 5907 5905 5904 5903 5902 5901 5900 5899 5898 5896 5895 5894 5892 5891 5890 5888 5887 5885 5884 5882 5881 5879 5877 5875 5874 5872 5870 5868 5866 5865 5864 5863 5862 5861 5860 5859 5858 5858 5857 5856
5909 5908 5906 5904 5903 5902 5902 5901 5900 5899 5897 5896 5894 5893 5891 5890 5888 5887 5886 5884 5883 5881 5880 5878 5876 5874 5872 5870 5868 5867 5865 5863 5862 5861 5860 5859 5858 5856 5855 5854 5853 5852 5851
5907 5906 5903 5900 5900 5899 5898 5898 5897 5896 5894 5893 5892 5890 5888 5887 5885 5884 5882 5881 5879 5878 5876 5874 5872 5870 5868 5865 5864 5863 5861 5860 5858 5857 5856 5855 5853 5852 5851 5849 5848 5847 5846
5904 5903 5900 5898 5897 5897 5896 5895 5894 5892 5891 5890 5888 5887 5885 5883 5881 5880 5878 5877 5875 5874 5872 5870 5868 5866 5863 5861 5860 5859 5857 5856 5854 5852 5851 5850 5848 5847 5845 5844 5843 5842 5840
5899 5898 5897 5895 5894 5894 5893 5891 5890 5889 5887 5886 5884 5882 5880 5879 5877 5876 5874 5873 5871 5869 5867 5865 5863 5861 5859 5857 5856 5854 5853 5851 5849 5847 5846 5844 5843 5841 5839 5838 5837 5835 5834
5895 5893 5893 5891 5889 5889 5888 5887 5885 5884 5883 5881 5879 5877 5875 5874 5872 5871 5869 5868 5866 5864 5862 5860 5858 5856 5855 5853 5851 5849 5847 5846 5844 5842 5840 5839 5837 5835 5833 5832 5830 5829 5827
5890 5889 5889 5887 5885 5884 5883 5882 5881 5879 5878 5876 5874 5872 5870 5868 5867 5866 5864 5863 5861 5859 5857 5855 5853 5851 5849 5847 5845 5843 5841 5840 5838 5836 5834 5832 5830 5828 5827 5825 5823 5822 5820
5886 5885 5884 5883 5881 5879 5878 5877 5875 5873 5872 5870 5868 5866 5865 5863 5861 5860 5858 5856 5855 5853 5851 5849 5847 5844 5842 5840 5838 5837 5835 5833 5831 5829 5827 5825 5823 5822 5820 5818 5816 5814 5813
5881 5880 5879 5877 5876 5874 5872 5871 5869 5867 5866 5864 5862 5860 5859 5857 5855 5854 5852 5850 5848 5846 5844 5842 5840 5838 5836 5833 5832 5830 5828 5826 5824 5822 5819 5817 5816 5814 5812 5810 5808 5807 5805
5875 5874 5873 5871 5869 5868 5866 5864 5863 5861 5859 5857 5855 5854 5852 5850 5848 5847 5845 5843 5841 5839 5837 5835 5833 5831 5829 5827 5825 5823 5821 5819 5817 5815 5813 5811 5809 5807 5805 5802 5800 5799 5797
5869 5868 5866 5865 5862 5861 5860 5858 5856 5854 5852 5851 5849 5847 5845 5843 5841 5840 5838 5836 5834 5832 5830 5828 5826 5824 5822 5819 5818 5816 5814 5812 5810 5807 5806 5803 5801 5799 5796 5793 5792 5790 5788
5862 5861 5859 5858 5855 5854 5853 5851 5849 5847 5845 5844 5842 5840 5838 5836 5834 5832 5830 5828 5826 5825 5822 5820 5819 5817 5815 5812 5810 5808 5806 5805 5802 5800 5798 5796 5793 5790 5788 5785 5783 5781 5779
5855 5854 5852 5850 5848 5846 5845 5843 5840 5839 5838 5836 5834 5832 5830 5828 5826 5824 5822 5821 5819 5817 5815 5813 5811 5809 5807 5805 5803 5801 5799 5797 5795 5792 5790 5788 5785 5782 5779 5776 5774 5772 5770
5847 5846 5844 5842 5841 5839 5837 5835 5833 5831 5829 5828 5826 5824 5822 5820 5818 5816 5814 5812 5811 5809 5807 5805 5803 5801 5799 5797 5795 5793 5791 5789 5787 5784 5782 5779 5776 5773 5770 5768 5766 5763 5760
5839 5837 5836 5834 5833 5831 5829 5827 5825 5823 5821 5819 5818 5816 5814 5812 5810 5808 5806 5804 5802 5800 5798 5797 5795 5793 5791 5789 5787 5785 5783 5781 5779 5776 5773 5771 5768 5765 5762 5759 5757 5754 5752
5830 5829 5827 5826 5824 5822 5820 5817 5816 5815 5813 5811 5809 5807 5805 5803 5801 5799 5797 5795 5793 5791 5789 5788 5786 5784 5782 5781 5778 5776 5774 5772 5770 5767 5765 5762 5759 5756 5753 5750 5748 5745 5743
5821 5820 5819 5817 5815 5813 5811 5809 5807 5806 5804 5802 5800 5798 5796 5794 5792 5790 5788 5786 5784 5782 5780 5778 5776 5775 5773 5771 5769 5767 5764 5762 5760 5758 5755 5753 5750 5747 5744 5742 5739 5737 5734
5812 5811 5810 5808 5806 5804 5803 5800 5799 5797 5795 5793 5791 5789 5787 5785 5782 5780 5778 5776 5774 5772 5770 5768 5767 5765 5763 5761 5759 5757 5755 5752 5750 5748 5745 5743 5740 5738 5735 5732 5730 5727 5725
5803 5801 5800 5798 5796 5795 5793 5792 5789 5787 5785 5783 5781 5779 5777 5775 5773 5771 5769 5767 5764 5762 5760 5758 5757 5755 5753 5751 5749 5747 5745 5743 5740 5738 5735 5733 5731 5728 5726 5723 5720 5718 5716
5792 5791 5790 5789 5787 5786 5784 5782 5780 5778 5776 5774 5772 5770 5768 5766 5763 5761 5759 5757 5755 5752 5750 5748 5747 5745 5743 5741 5739 5736 5734 5732 5730 5728 5725 5723 5721 5719 5716 5714 5711 5709 5706
5782 5781 5780 5779 5778 5776 5774 5772 5770 5768 5766 5764 5762 5760 5758 5755 5753 5751 5749 5747 5745 5743 5740 5738 5736 5734 5733 5730 5728 5726 5724 5722 5720 5717 5715 5713 5711 5709 5706 5704 5701 5699 5696